Regional Weather Roundup
Issued by NWS

Home | Current Version | Previous Version | Text Only | Print | Product List | Glossary Off
Versions: 1 2 3 4 5 6 7 8 9 10 11 12 13 14 15 16 17 18 19 20 21 22 23 24 25 26 27 28 29 30 31 32 33 34 35 36 37 38 39 40 41 42 43 44 45 46 47 48 49 50

000
ASUS43 KDMX 182307
RWRIA

WEATHER ROUNDUP FOR IOWA
NATIONAL WEATHER SERVICE DES MOINES IA
600 PM CDT THU SEP 18 2014

NOTE: "FAIR" INDICATES FEW OR NO CLOUDS BELOW 12,000 FEET WITH NO
SIGNIFICANT WEATHER AND/OR OBSTRUCTIONS TO VISIBILITY.

* - THESE STATIONS ARE NOT NWS STATIONS...THUS NOT UNDER NWS
QUALITY CONTROL.  THEY ALSO DO NOT REPORT WEATHER SUCH
AS PRECIPITATION OR FOG.

IAZ001>003-012>014-020>022-031>034-043>046-190000-
   NORTHWEST IOWA

CITY           SKY/WX    TMP DP  RH WIND       PRES   REMARKS
CARROLL *      SUNNY     70  54  56 SE10G17   29.99S
CHEROKEE *     SUNNY     72  55  56 SE10      29.96F
DENISON *      SUNNY     72  55  56 S9        29.97R
LE MARS *      SUNNY     73  55  53 SE12G17   29.95S
ORANGE CITY *  SUNNY     73  54  49 SE8       29.95F
SHELDON *      SUNNY     70  54  56 SE13G20   29.95S
SIOUX CITY     SUNNY     75  56  51 S12       29.94F
SPENCER        SUNNY     72  49  44 S14       29.97F
STORM LAKE *   SUNNY     70  57  64 SE10      29.98S
$$

IAZ055>058-069>071-079>083-090>094-190000-
   SOUTHWEST IOWA

CITY           SKY/WX    TMP DP  RH WIND       PRES   REMARKS
ATLANTIC *     SUNNY     72  52  49 SE10      29.98S
AUDUBON *      SUNNY     70  52  52 SE8       30.01S
CLARINDA *     SUNNY     72  57  60 VRB7      30.00S
COUNCIL BLFS * SUNNY     72  57  60 SE10      29.97R
CRESTON *      SUNNY     66  57  72 SE14      30.01F
HARLAN  *      SUNNY     72  55  56 SE10      30.02S
LAMONI         MOSUNNY   67  58  72 SE6       30.02F
SHENANDOAH *   SUNNY     72  59  64 SE12      29.98S
$$

IAZ047>049-059>061-072>074-084-190000-
   CENTRAL IOWA

CITY           SKY/WX    TMP DP  RH WIND       PRES   REMARKS
AMES           SUNNY     70  49  47 S14       30.01F
ANKENY *       SUNNY     70  54  56 SE9G15    30.01S
CHARITON *     MOSUNNY   68  57  68 SE8       30.03S
DES MOINES     MOSUNNY   72  51  47 SE10      30.01F
GRINNELL*      SUNNY     72  54  53 SE9       30.04S
KNOXVILLE *    SUNNY     70  54  56 SE9       30.02S
MARSHALLTOWN   SUNNY     71  53  52 SE10      30.02F
PELLA *        SUNNY     72  54  53 S8        30.04S
PERRY *          N/A     72  54  53 SE8       30.01R
$$

IAZ004>006-015-016-023>025-035-036-190000-
   NORTH CENTRAL IOWA

CITY           SKY/WX    TMP DP  RH WIND       PRES   REMARKS
ALGONA *       SUNNY     72  48  43 S10       30.00S
CLARION *        N/A     72  50  46 S13G20    30.01S
ESTHERVILLE    SUNNY     71  49  45 S10       29.98S
FORT DODGE *   SUNNY     70  48  46 S10       30.01S
MASON CITY     SUNNY     70  52  52 S15       30.03S
FOREST CITY *  SUNNY     70  52  52 SE12      30.01S
IOWA FALLS *     N/A     72  52  49 SE12G17   30.03F
$$

IAZ007>011-017>019-026>030-037>042-050>054-066-190000-
   NORTHEAST IOWA

CITY           SKY/WX    TMP DP  RH WIND       PRES   REMARKS
CEDAR RAPIDS   SUNNY     70  54  56 SE7       30.05S
CHARLES CITY * SUNNY     70  52  52 S8        30.04S
CLINTON *      SUNNY     70  54  56 E8        30.10R
DECORAH *      SUNNY     68  55  64 VRB7      30.05S
DUBUQUE        SUNNY     68  52  56 E8        30.09S
MONTICELLO *   SUNNY     70  55  60 CALM      30.06S
OELWEIN *      PTSUNNY   72  54  53 SE9       30.05F
WATERLOO       SUNNY     71  52  50 S12       30.03F
$$

IAZ064-065-067-068-078-190000-
   EAST CENTRAL IOWA

CITY           SKY/WX    TMP DP  RH WIND       PRES   REMARKS
DAVENPORT      SUNNY     70  49  47 SE10      30.07S
IOWA CITY      SUNNY     72  54  53 E8        30.06R
MT. PLEASANT * SUNNY     73  48  40 SE7       30.04R
MUSCATINE *    SUNNY     73  50  43 E10G16    30.05S
QUAD CITIES    SUNNY     71  53  52 E10       30.05F
$$

IAZ062-063-075>077-085>089-095>099-190000-
   SOUTHEAST IOWA

CITY           SKY/WX    TMP DP  RH WIND       PRES   REMARKS
BURLINGTON     SUNNY     72  53  51 SE8       30.04S
FAIRFIELD *    MOSUNNY   70  55  60 SE6       30.04S
FORT MADISON * MOSUNNY   73  54  49 SE6       30.04S
KEOKUK *       MOSUNNY   72  54  53 SE8       30.03S
OSKALOOSA *      N/A     70  54  56 S10       30.04S
CENTERVILLE *  SUNNY     68  59  73 SE6       30.05S
OTTUMWA        SUNNY     70  54  56 SE7       30.03S
WASHINGTON *   SUNNY     73  54  49 SE8       30.04S
$$

ABBREVIATIONS USED IN REMARKS
   TC - TEMPERATURES IN CELSIUS
  WCI - WIND CHILL INDEX
   HX - HEAT INDEX
  VSB - VISIBILITY
$$




USA.gov is the U.S. government's official web portal to all federal, state and local government web resources and services.